CZ-2D DEB, 44605

Orbit data source: Space-Track

CZ-2D DEB, 44605 is space debris in SSO originally from a launch on Fri, 11 Nov 2016 UTC launched from the Jiuquan Satellite Launch Center, China (JSC). Debris objects in space refer to the collection of defunct objects orbiting the Earth. Examples of debris include non-operational satellites, rocket bodies, and fragments generated from explosions, collisions, or faulty payload assembly.

Loading next visibility...
Identifier
44605, 2016-068E
Orbit
SSO
Country
Flag of CNCN / PRC
Related business
Manufacturer
Unknown
Mission
Spacecraft
Bus & Motor
Unknown
Mass
Unknown
Launch date (UTC)
2016-11-11 (9 years ago)
Launch vehicle
Unknown
Launch site
Jiuquan Satellite Launch Center, China (JSC)
Object type
Payload
Rocket body
Debris
Shape & HBR
Unknown shape, 0.1 m
Radar Cross Section
Small (<0.1 m²)

Expand to show TLE details & history
Last TLE update: 2 days ago

TLE from 2 days ago
0 CZ-2D DEB
1 44605U 16068E   25306.68446059  .00000739  00000-0  51845-3 0  9993
2 44605  98.4428  25.7426 0229859 160.8492 200.1489 13.88971169449708
Epoch: 2025-11-02T16:25Z
TLE epoch observation values (Epoch: 2025-11-02T16:25:37.394Z)
Latitude
0.00002°
Longitude
97.14014°
Altitude
1,093.348 km
Speed
7.226 km/s
True Right ascension
01h 42m 58s
True Declination
0° 00' 00"
Sunlit
Object was in full shadow at epoch
Visualization orbit readout
Latitude
Unknown
Longitude
Unknown
Altitude
Unknown
Speed
Unknown
Apparent Right ascension
Unknown
Apparent Declination
Unknown
Sunlit
N/A
Visualization observer readout
Local Sidereal Time
06:59:26
Azimuth
Unknown
Elevation
Unknown
Doppler factor
Unknown
Orbital elements
Apogee altitude
1,097.395 km
Perigee altitude
761.453 km
Semi-major axis
7,307.561 km
Eccentricity
0.02299
Inclination
98.4428°
RAAN
25.7426°
Arg. of periapsis
160.8492°
True anomaly
199.26548°
Mean anomaly
200.1489°
Eccentric anomaly
199.70484°
Mean motion
3.47444 °/min
Orbital period
103.61 mins
BSTAR
0.00051845
Loading maneuver chart data...
Computing Atmospheric mass density...
Loading historical data...
Loading historical data...
Loading historical data...
Loading historical data...
Loading historical data...
Loading historical data...
Loading historical data...

Documentation

Showing up to 5 results
|